Temperature
15 16 16 16 19 20 20 19 18 16 16 14 13 14 16 16 16 15 9 9 10 10 10 11 11 11 11 12 12 12 12 13 13 13 13 13 13 13 13 13 13 14 14 14 14 14 14 14 14
15 16 16 18 20 20 20 18 17 16 14 12 12 13 14 12 10 9 8 9 9 10 10 10 11 11 11 11 12 12 12 12 12 12 13 13 13 13 13 13 13 13 13 13 14 14 14 14 14
15 15 16 19 19 20 20 17 16 13 12 12 12 11 12 11 8 8 8 9 9 9 10 10 10 11 11 11 11 11 12 12 12 12 12 12 12 12 12 12 13 13 13 13 13 13 13 14 14
15 15 16 19 18 18 17 16 14 13 11 11 12 11 9 8 7 7 8 8 9 9 9 10 10 11 11 11 11 11 11 12 12 12 12 12 12 12 12 12 12 13 13 13 13 13 13 13 13
15 16 18 18 17 16 15 14 13 14 13 11 11 12 9 7 7 8 8 8 9 9 9 9 10 10 11 11 11 11 11 11 11 11 11 11 12 12 12 12 12 12 13 13 13 13 13 13 13
15 17 18 18 17 15 14 12 12 13 12 10 10 11 9 7 7 8 8 8 8 9 9 9 9 10 10 10 10 11 11 11 11 11 11 11 11 11 11 12 12 12 12 13 13 13 13 13 13
16 17 18 18 16 15 14 11 12 13 12 10 10 11 8 6 7 7 7 8 8 8 9 9 9 9 10 10 10 10 10 10 11 11 11 11 11 11 11 11 12 12 12 12 12 12 12 12 12
14 16 16 16 16 15 12 10 10 11 11 8 8 11 9 6 7 7 7 7 8 8 8 9 9 9 9 9 10 10 10 10 10 10 10 10 10 11 11 11 11 11 12 12 12 12 12 12 12
12 16 16 16 15 14 11 10 8 7 8 7 7 7 7 7 7 6 7 7 7 8 8 8 9 9 9 9 9 9 9 10 10 10 10 10 10 10 10 10 11 11 11 11 11 11 11 11 11
13 15 15 13 13 13 10 10 9 8 8 7 6 6 6 6 6 6 6 7 7 7 8 8 8 8 8 9 9 9 9 9 9 9 9 9 9 9 9 10 10 10 10 11 11 11 11 11 11
12 13 12 10 9 10 9 9 8 9 10 9 8 6 6 6 6 6 6 6 6 7 7 8 8 8 8 8 8 8 8 9 9 9 9 9 9 9 9 9 9 9 10 10 10 10 10 10 10
10 9 9 9 7 8 9 8 7 8 9 8 7 6 6 6 5 5 5 6 6 6 7 7 7 7 7 8 8 8 8 8 8 8 8 8 8 8 8 8 8 9 9 9 9 9 10 10 10
10 9 7 6 6 6 7 7 7 7 6 6 6 6 6 5 5 5 5 5 5 6 6 6 7 7 7 7 7 7 8 8 8 8 8 8 8 8 8 8 8 8 8 8 9 9 9 9 9
8 8 7 6 6 6 7 7 6 7 5 5 5 5 5 5 5 5 5 5 5 5 5 6 6 6 6 6 7 7 7 7 7 7 7 7 7 7 8 8 7 8 8 8 8 8 8 8 8
7 8 8 7 7 6 6 8 7 6 5 5 4 4 4 4 4 4 5 5 5 5 5 5 5 5 6 6 6 6 6 7 7 7 7 7 7 7 7 7 7 7 7 7 7 7 7 8 8
8 10 11 9 7 6 8 11 9 5 5 5 4 4 4 4 4 4 4 4 4 4 4 5 5 5 5 5 5 6 6 6 6 6 6 6 6 6 6 6 7 7 7 7 7 7 7 7 7
10 11 11 10 7 7 7 10 8 4 4 5 4 4 3 3 3 3 4 4 4 4 4 4 4 5 5 5 5 5 5 5 6 6 6 6 6 6 6 6 6 6 6 6 6 6 6 6 6
11 11 10 10 8 6 7 8 8 5 4 4 4 4 3 3 3 3 3 3 3 3 3 4 4 4 4 4 4 4 5 5 5 5 5 5 5 5 5 5 5 5 5 5 6 6 5 5 6
9 9 10 9 7 6 7 7 8 6 4 4 4 4 3 3 3 3 3 3 3 3 3 3 3 3 3 4 4 4 4 4 4 5 5 5 5 5 5 5 5 5 5 5 5 5 5 5 5
8 8 9 8 5 5 6 6 7 6 5 4 4 4 3 3 2 2 2 2 2 2 2 2 3 3 3 3 3 3 3 3 4 4 4 4 4 4 4 4 4 4 4 4 4 4 4 4 4
7 8 8 7 5 5 5 8 7 6 5 4 3 3 3 2 2 2 1 1 2 2 2 2 2 2 2 2 2 2 3 3 3 3 3 3 3 3 3 4 4 4 4 3 3 3 3 3 3
7 6 6 5 6 7 5 8 9 6 5 5 4 3 3 2 2 2 1 1 1 1 1 1 1 2 2 2 2 2 2 2 2 2 2 3 3 3 3 3 3 3 3 3 3 3 2 3 2
5 4 4 4 5 5 5 5 9 5 6 5 5 3 2 2 2 1 1 1 1 1 1 1 1 1 1 1 1 1 1 2 2 2 2 2 2 2 2 2 2 2 2 2 2 2 2 2 2
3 4 4 4 5 6 6 6 9 8 7 6 5 3 2 2 1 1 1 1 1 1 0 0 0 0 0 0 0 1 1 1 1 1 1 1 1 1 2 2 2 2 2 1 2 1 1 1 1
4 5 6 7 6 7 4 4 7 7 5 4 4 3 2 1 1 1 1 1 0 0 0 -0 -0 -0 -0 -0 0 0 0 0 1 1 1 1 1 1 1 1 1 1 1 1 1 1 1 1 0
4 5 7 7 8 8 3 5 7 5 3 2 2 2 1 1 1 1 0 0 -0 -0 -0 -0 -1 -1 -1 -0 -0 -0 -0 -0 -0 0 0 0 0 0 0 0 0 0 0 0 0 0 0 -0 -0
3 4 4 5 4 5 7 5 5 4 3 2 2 1 1 1 1 1 0 -0 -0 -0 -1 -1 -1 -1 -1 -1 -1 -1 -1 -1 -1 -1 -1 -1 -1 -1 -1 -1 -1 -1 -0 -0 -0 -1 -1 -1 -1
2 3 3 4 5 6 7 6 7 5 4 3 2 1 1 0 0 -0 -0 -0 -1 -1 -1 -1 -1 -1 -1 -2 -2 -2 -2 -2 -2 -1 -1 -1 -1 -1 -1 -1 -1 -1 -1 -1 -1 -1 -1 -1 -1
1 1 2 4 4 5 6 8 6 4 3 3 2 1 0 -0 -1 -1 -1 -1 -1 -1 -1 -2 -2 -2 -2 -2 -2 -2 -2 -2 -2 -2 -2 -2 -2 -2 -2 -2 -2 -2 -2 -2 -2 -2 -2 -2 -2
1 2 2 3 3 3 5 6 3 2 1 1 0 -1 -1 -1 -1 -1 -1 -1 -2 -2 -2 -2 -3 -3 -3 -3 -3 -3 -3 -3 -3 -3 -3 -3 -3 -3 -3 -3 -3 -3 -3 -3 -3 -3 -3 -3 -3
Wind_Speed
5 2 2 3 4 5 7 5 3 4 3 2 2 1 1 1 1 3 4 4 4 2 2 3 5 6 6 7 8 9 9 9 9 10 10 10 11 11 11 12 12 11 12 12 13 12 12 12 12
3 1 2 3 6 8 6 5 6 4 4 4 3 1 2 2 4 4 2 4 4 3 3 4 6 7 7 7 8 8 9 9 9 9 10 10 10 11 11 12 12 12 11 12 12 12 12 11 11
0 1 2 4 6 8 5 4 5 4 4 3 3 1 1 2 3 3 3 3 3 4 3 5 7 7 7 8 9 9 9 9 9 9 9 9 9 10 11 12 12 12 12 11 11 11 11 10 10
2 2 2 4 8 5 2 3 5 7 4 1 3 3 2 3 2 2 3 2 3 4 5 6 7 8 7 8 9 9 9 10 10 9 9 9 9 10 11 11 12 12 11 11 11 10 10 10 10
1 3 4 6 7 4 2 2 6 6 5 3 3 3 3 3 3 3 3 2 3 4 5 7 7 8 8 8 9 9 9 10 10 10 9 9 9 10 10 11 11 11 11 10 9 9 10 10 9
3 3 6 9 9 4 3 4 6 5 4 4 4 3 3 4 3 3 3 3 3 4 5 6 8 8 9 9 9 9 10 10 9 9 9 9 9 9 10 10 10 10 10 9 9 9 9 9 10
3 3 6 7 7 6 5 5 5 6 6 4 3 4 4 4 2 2 2 3 4 5 5 6 6 7 8 9 9 9 9 10 10 10 9 9 9 9 9 9 9 9 9 9 8 8 8 9 8
1 3 4 6 7 6 5 5 2 4 4 2 3 4 3 4 3 3 3 3 4 5 5 5 5 6 5 6 8 9 9 9 9 9 9 9 9 9 9 9 8 8 8 8 8 8 8 8 8
2 5 7 7 6 4 6 6 3 1 3 3 2 1 2 6 6 4 3 3 3 4 4 4 4 5 4 5 6 7 7 7 7 7 8 7 6 6 6 8 8 7 7 7 8 8 7 6 6
3 6 7 2 2 4 6 5 5 5 5 4 3 2 3 7 7 6 5 3 2 2 2 3 3 4 4 3 4 4 4 5 4 4 5 4 5 5 5 6 7 7 6 6 6 6 6 4 4
2 4 3 2 1 3 5 4 4 6 6 7 6 7 7 7 7 7 6 4 3 2 1 2 2 3 4 3 3 3 3 3 3 4 4 4 4 4 4 4 4 4 4 3 4 4 4 4 3
3 2 1 1 1 3 4 4 5 7 5 1 3 7 8 9 8 7 6 5 4 3 2 1 2 2 3 2 2 2 3 2 3 3 3 3 3 3 3 3 3 3 3 3 2 2 3 3 3
3 2 1 1 2 2 3 5 5 7 5 2 3 7 8 9 8 7 5 5 4 4 3 1 1 1 1 1 2 2 2 2 2 2 3 3 2 2 3 3 3 3 3 3 2 2 2 2 2
2 3 2 1 2 2 4 6 5 8 5 5 6 7 8 9 8 7 6 6 5 4 3 2 1 1 1 1 1 1 1 1 1 2 2 2 2 2 2 2 2 3 3 3 2 2 2 1 1
3 2 2 3 3 3 3 8 10 7 6 7 8 8 8 8 8 9 8 7 7 6 4 3 2 1 1 1 0 1 1 1 1 1 1 1 1 1 1 1 2 2 2 2 2 2 1 1 1
2 3 5 3 4 3 5 11 5 5 8 9 8 8 8 9 9 9 8 8 7 6 5 4 3 2 2 2 1 1 1 1 1 1 1 1 1 1 1 1 1 2 2 1 2 1 1 1 1
4 6 8 4 4 3 7 11 3 4 7 9 9 9 9 9 10 9 9 8 7 7 6 5 4 3 2 2 2 2 2 2 1 1 1 1 1 1 0 0 1 1 1 1 1 1 1 1 2
6 7 7 8 3 5 9 13 9 7 9 10 10 10 11 11 11 10 9 8 7 7 6 6 5 4 3 2 2 2 2 2 2 1 2 2 2 1 1 0 0 1 1 1 1 1 1 1 1
4 6 9 7 3 6 12 16 14 10 11 13 12 12 12 13 11 9 9 9 8 7 7 7 6 5 3 3 3 3 4 3 3 2 2 3 3 2 2 1 1 1 1 1 1 1 1 1 1
7 9 10 7 3 5 10 16 15 12 13 13 14 13 13 11 10 10 10 10 9 9 8 8 7 6 6 4 4 4 4 4 3 3 3 4 4 3 2 3 2 2 2 2 1 1 1 1 1
9 11 10 8 5 5 8 11 8 7 8 9 11 11 11 11 11 10 11 11 10 10 10 8 8 7 6 5 3 2 3 3 3 4 4 4 5 5 4 4 3 3 3 3 2 2 2 2 2
9 7 7 7 6 5 3 8 7 6 7 8 8 8 9 9 10 10 10 10 11 10 9 9 8 8 7 6 6 6 6 6 6 5 4 5 5 5 5 5 5 4 3 3 3 3 3 3 3
4 2 5 6 7 8 6 7 9 4 6 6 6 6 7 7 8 8 9 10 10 9 8 8 8 7 7 7 7 8 7 6 5 5 6 5 5 6 6 5 5 5 4 4 4 4 4 4 4
2 1 2 4 5 8 9 9 9 5 6 4 2 4 5 5 6 7 7 8 8 7 7 7 7 7 7 7 8 8 9 8 7 7 6 6 5 5 7 6 6 6 5 5 5 5 6 5 5
3 3 3 4 5 8 4 8 10 6 5 4 4 4 4 4 4 5 6 7 7 8 7 7 7 8 8 8 8 8 9 9 9 9 8 7 5 5 6 7 6 7 6 6 6 6 6 6 7
6 6 6 7 8 7 5 9 7 3 3 4 5 4 4 4 4 4 5 6 7 7 8 7 8 8 8 8 8 8 8 8 7 9 8 8 7 6 7 6 7 8 7 6 6 6 6 6 7
5 6 5 4 6 8 8 7 8 5 4 4 4 3 4 4 4 4 4 5 6 7 8 8 8 8 8 8 8 7 8 8 8 8 8 7 7 6 7 7 7 7 8 7 7 6 7 7 7
3 3 4 5 6 9 9 9 6 5 5 4 3 3 4 3 3 4 5 5 6 6 7 7 8 8 8 8 7 6 7 8 8 8 8 8 8 8 8 8 8 7 8 8 7 7 7 8 7
5 5 5 5 6 7 9 8 3 6 4 3 4 3 4 4 5 5 5 5 5 5 6 7 7 7 7 7 7 7 7 8 8 8 8 8 8 8 9 8 8 8 8 8 8 8 8 9 8
6 7 8 7 7 7 9 9 1 2 2 2 4 5 5 5 5 5 5 5 5 6 6 6 6 7 7 7 7 7 7 7 8 8 8 8 8 8 8 8 9 9 9 9 9 9 9 9 9
Wind_Direction
336 320 229 209 197 214 224 204 178 157 155 111 87 160 166 137 18 91 73 36 16 15 24 50 52 66 69 71 74 71 69 67 65 63 61 62 64 62 64 66 68 71 73 72 72 75 76 76 80
332 285 207 205 220 219 217 201 190 168 124 123 114 113 121 100 54 76 80 19 8 29 43 58 61 67 72 75 77 74 71 70 68 65 62 59 62 64 65 67 65 69 73 73 74 72 74 78 80
245 288 200 193 221 230 207 168 171 135 128 148 135 88 80 100 94 93 43 16 22 47 52 67 70 71 74 76 79 77 74 71 70 67 64 60 62 66 66 67 66 67 69 71 73 73 72 78 81
204 169 179 217 218 229 236 146 149 148 151 156 161 137 122 61 87 68 53 43 68 64 57 69 77 75 75 76 77 79 77 72 68 66 66 62 63 67 68 67 65 66 68 70 71 71 70 74 81
200 192 195 216 224 212 199 164 168 175 171 169 181 167 144 108 80 82 71 66 81 68 61 66 72 77 74 75 74 74 75 74 69 65 65 65 65 67 67 67 65 65 64 68 69 73 70 72 79
174 200 215 223 216 204 192 180 178 191 177 167 180 172 144 123 114 96 74 75 81 79 63 70 65 73 75 71 72 71 72 73 70 65 64 65 66 67 67 67 66 64 64 64 71 73 71 71 71
201 202 225 225 217 213 194 174 194 197 194 188 192 175 151 161 133 113 92 86 81 78 71 66 68 71 79 74 70 72 71 71 69 64 61 62 64 69 66 65 66 65 64 61 64 71 72 70 70
205 186 211 216 219 220 169 168 195 207 197 149 192 198 176 177 156 140 117 96 82 72 68 66 67 62 78 84 73 72 71 68 69 66 61 61 64 70 68 63 61 63 61 60 57 69 73 70 70
201 214 226 220 216 201 167 179 168 165 156 166 198 291 50 143 156 155 143 117 90 70 62 62 65 57 63 88 83 78 74 69 69 67 63 65 62 61 66 60 57 59 59 58 57 59 66 73 74
202 224 231 218 212 178 172 188 173 176 191 203 205 190 132 152 167 173 172 162 141 99 74 61 64 61 55 74 85 82 72 68 68 68 68 63 59 54 51 62 57 56 57 61 58 58 63 63 69
191 219 201 181 155 164 175 188 185 200 220 222 215 188 168 171 181 189 191 185 178 160 113 77 65 61 54 58 69 71 67 64 61 63 63 61 62 58 50 51 46 45 48 53 58 64 52 38 39
155 186 193 171 161 180 191 186 202 222 236 280 211 172 171 183 193 200 200 198 190 182 172 124 72 68 60 55 74 75 71 65 61 56 58 60 53 52 47 42 31 29 24 25 36 40 41 34 34
190 180 147 139 136 173 193 214 232 237 242 244 171 173 186 194 203 207 208 204 202 201 199 198 135 92 78 61 75 76 80 76 84 80 60 56 56 52 51 40 34 27 19 16 16 23 31 32 31
155 161 173 204 202 207 224 242 246 246 225 209 193 194 199 203 205 205 208 211 214 214 211 215 220 203 146 85 80 101 94 102 99 90 77 63 64 57 51 39 30 23 13 2 357 9 12 24 18
143 159 223 229 222 210 236 251 237 233 200 204 207 208 209 212 210 212 214 215 216 219 219 223 223 221 206 200 186 153 140 141 106 107 131 88 65 74 62 39 26 10 359 0 360 6 0 9 6
168 215 239 206 204 207 227 257 231 193 198 213 216 217 218 219 219 220 219 219 218 217 218 223 227 229 233 222 217 204 186 174 167 167 169 140 75 88 83 52 10 351 357 360 360 354 333 325 320
210 238 247 234 202 213 228 258 242 195 210 225 225 226 227 228 228 227 224 221 218 217 218 220 224 227 232 232 229 222 202 194 210 204 191 191 172 196 164 32 355 326 354 360 346 344 293 291 308
231 241 252 250 213 230 241 255 258 233 230 239 239 236 234 233 232 228 224 221 219 219 220 223 224 227 228 231 233 231 213 212 209 218 213 208 206 213 213 221 324 320 337 342 316 283 287 267 292
244 246 258 265 262 254 253 263 266 252 242 246 245 241 238 238 237 230 225 222 220 219 219 222 225 223 216 221 230 235 225 218 218 226 225 216 215 221 232 227 214 243 224 258 282 264 253 285 293
239 251 262 272 275 262 274 274 271 255 244 243 244 242 239 238 235 229 225 221 220 220 220 222 223 222 221 225 232 246 229 220 219 215 228 223 219 221 233 222 210 216 219 224 234 244 236 244 232
240 248 259 269 295 255 287 275 249 244 240 244 245 245 242 237 234 228 223 220 221 222 222 223 224 224 224 224 227 240 226 219 223 221 224 228 224 221 225 226 215 212 216 218 223 227 231 232 232
250 249 256 262 270 270 279 283 259 247 251 245 244 240 240 238 234 229 223 221 222 224 223 224 225 224 222 218 219 223 231 226 229 223 222 226 225 221 221 225 219 212 215 218 221 222 230 227 232
248 266 247 249 250 265 244 257 268 234 253 249 243 239 242 239 233 230 226 225 225 225 225 226 225 224 222 222 225 229 237 236 227 220 221 223 227 225 221 224 223 213 214 217 218 220 226 227 230
197 229 237 226 234 252 235 235 268 237 239 251 248 254 253 247 240 235 232 230 229 226 223 223 224 226 225 225 228 230 233 233 225 222 223 225 226 228 224 221 225 219 216 218 220 221 224 228 230
211 229 252 240 234 249 196 233 254 254 246 248 261 272 265 255 250 242 232 229 228 225 225 225 227 231 230 229 230 233 234 233 230 224 223 226 227 228 227 222 223 221 218 217 222 223 223 226 229
211 227 238 255 263 269 220 239 251 262 254 254 266 280 277 264 257 253 243 234 232 230 230 229 230 234 233 234 237 238 238 236 237 231 225 227 229 229 227 229 231 224 219 217 220 224 226 227 230
205 225 258 261 270 271 251 252 272 244 247 245 257 274 280 272 265 265 261 250 243 237 234 233 234 236 236 237 238 240 239 240 239 235 230 232 233 231 224 224 233 232 221 219 221 226 227 228 231
256 204 194 217 248 259 261 253 243 224 233 247 259 271 287 290 279 281 274 269 260 248 241 238 237 239 238 237 238 241 243 244 241 233 231 230 232 232 227 225 227 235 230 222 222 230 228 230 232
198 203 218 230 246 252 267 260 228 217 227 250 266 293 302 296 290 290 286 279 272 258 245 241 243 243 243 241 241 242 247 245 239 233 232 231 232 231 228 226 226 231 232 228 224 227 228 230 234
234 227 209 228 241 241 259 268 52 212 267 295 299 301 300 294 292 293 288 286 273 260 253 249 247 244 244 244 243 243 248 244 238 237 237 234 233 233 232 227 226 229 233 229 228 227 228 230 233
Height
1509 1510 1512 1515 1515 1512 1511 1513 1516 1521 1523 1527 1528 1527 1525 1527 1529 1535 1537 1534 1535 1536 1537 1538 1539 1540 1540 1540 1541 1541 1541 1541 1541 1541 1541 1540 1540 1540 1540 1540 1540 1540 1539 1539 1539 1539 1539 1539 1539
1509 1511 1514 1515 1510 1509 1511 1513 1517 1521 1525 1528 1529 1529 1529 1531 1533 1534 1533 1533 1534 1536 1537 1538 1539 1539 1540 1540 1540 1541 1541 1541 1541 1541 1540 1540 1540 1540 1540 1540 1540 1540 1540 1540 1539 1539 1540 1540 1540
1510 1511 1514 1511 1508 1504 1507 1515 1518 1525 1527 1528 1529 1530 1531 1532 1533 1533 1533 1533 1534 1536 1537 1538 1538 1539 1540 1540 1540 1540 1540 1540 1540 1540 1540 1540 1540 1540 1540 1540 1540 1540 1540 1540 1540 1540 1540 1540 1540
1511 1513 1514 1510 1508 1511 1512 1517 1521 1524 1527 1528 1529 1530 1532 1533 1533 1532 1532 1533 1534 1535 1537 1537 1538 1539 1539 1539 1539 1540 1540 1540 1540 1540 1540 1540 1540 1540 1540 1540 1540 1540 1540 1540 1540 1540 1540 1540 1541
1510 1512 1510 1510 1510 1514 1518 1521 1523 1522 1525 1527 1529 1529 1531 1531 1531 1531 1532 1533 1534 1535 1536 1537 1538 1538 1539 1539 1539 1539 1539 1539 1539 1539 1539 1539 1540 1540 1540 1540 1540 1540 1540 1540 1540 1540 1540 1541 1541
1511 1509 1506 1505 1508 1515 1519 1522 1523 1523 1525 1527 1529 1529 1530 1530 1530 1531 1531 1532 1534 1535 1535 1536 1537 1538 1538 1538 1538 1538 1538 1538 1538 1539 1539 1539 1539 1539 1539 1539 1539 1539 1539 1539 1540 1540 1540 1541 1541
1510 1507 1504 1504 1508 1513 1518 1521 1522 1522 1524 1526 1527 1528 1529 1529 1529 1530 1531 1532 1533 1534 1535 1535 1536 1537 1537 1538 1538 1538 1538 1538 1538 1538 1538 1538 1538 1538 1538 1539 1539 1539 1539 1539 1539 1540 1540 1541 1541
1508 1509 1507 1507 1508 1510 1518 1521 1521 1522 1523 1526 1527 1527 1528 1528 1528 1529 1530 1531 1532 1533 1534 1534 1535 1536 1536 1537 1537 1537 1537 1537 1537 1537 1537 1537 1538 1538 1538 1538 1538 1538 1538 1538 1538 1539 1539 1540 1541
1508 1509 1504 1505 1508 1510 1517 1519 1522 1522 1523 1524 1525 1526 1526 1526 1526 1528 1529 1530 1531 1531 1532 1533 1534 1534 1535 1536 1536 1536 1537 1537 1537 1537 1537 1537 1537 1537 1537 1537 1537 1537 1538 1538 1538 1538 1539 1540 1540
1508 1504 1504 1509 1510 1512 1516 1518 1520 1521 1522 1523 1523 1523 1523 1524 1525 1526 1527 1528 1529 1530 1531 1531 1532 1533 1534 1534 1535 1535 1536 1536 1536 1536 1536 1536 1536 1536 1536 1536 1537 1537 1537 1537 1537 1538 1538 1539 1539
1508 1506 1509 1512 1514 1514 1516 1518 1519 1519 1518 1519 1520 1520 1521 1522 1523 1525 1525 1526 1527 1528 1529 1530 1531 1531 1532 1533 1534 1534 1534 1535 1535 1535 1535 1535 1535 1535 1535 1535 1535 1536 1536 1536 1536 1537 1537 1538 1538
1510 1512 1513 1513 1514 1515 1515 1516 1518 1517 1516 1517 1518 1519 1519 1520 1521 1522 1523 1524 1525 1526 1526 1528 1529 1529 1530 1531 1532 1532 1533 1533 1533 1533 1534 1534 1534 1534 1534 1534 1534 1534 1534 1534 1535 1535 1535 1536 1537
1509 1512 1514 1515 1515 1515 1515 1516 1515 1514 1515 1515 1516 1516 1517 1518 1519 1520 1521 1522 1523 1524 1524 1525 1526 1527 1528 1529 1530 1530 1531 1531 1532 1532 1532 1532 1532 1532 1532 1533 1532 1532 1533 1533 1533 1533 1534 1534 1535
1511 1512 1514 1514 1515 1515 1515 1514 1515 1510 1512 1513 1513 1513 1514 1515 1516 1517 1518 1519 1520 1521 1522 1523 1524 1525 1526 1526 1527 1528 1529 1529 1530 1530 1530 1530 1531 1531 1531 1531 1531 1531 1531 1531 1531 1532 1532 1532 1533
1512 1512 1512 1512 1513 1514 1515 1509 1508 1507 1509 1510 1510 1511 1511 1512 1513 1513 1514 1515 1516 1518 1519 1520 1521 1522 1523 1524 1524 1525 1526 1527 1527 1528 1528 1528 1529 1529 1529 1529 1529 1529 1530 1530 1530 1530 1530 1531 1531
1510 1507 1503 1507 1511 1512 1513 1498 1501 1505 1506 1506 1507 1507 1508 1508 1509 1510 1511 1512 1513 1514 1515 1517 1518 1519 1520 1521 1522 1522 1523 1524 1524 1525 1525 1526 1526 1527 1527 1527 1527 1528 1528 1528 1528 1528 1528 1528 1529
1504 1499 1496 1502 1509 1510 1508 1496 1500 1502 1503 1503 1503 1503 1504 1504 1505 1506 1507 1508 1509 1510 1511 1513 1514 1515 1517 1517 1518 1519 1520 1520 1521 1522 1522 1523 1524 1524 1524 1525 1525 1525 1525 1525 1526 1526 1526 1526 1526
1496 1496 1496 1497 1504 1507 1504 1497 1497 1500 1500 1499 1499 1499 1499 1499 1499 1501 1502 1504 1505 1506 1507 1509 1510 1511 1513 1513 1514 1515 1516 1517 1517 1518 1519 1519 1520 1521 1522 1522 1522 1522 1522 1523 1523 1523 1524 1524 1524
1500 1499 1496 1497 1505 1505 1498 1493 1491 1494 1496 1494 1494 1494 1493 1494 1496 1497 1498 1499 1500 1501 1503 1504 1505 1507 1508 1509 1510 1510 1511 1512 1513 1514 1515 1515 1516 1517 1518 1518 1519 1519 1520 1520 1520 1521 1521 1521 1521
1502 1500 1496 1499 1506 1505 1498 1491 1487 1488 1488 1487 1487 1487 1488 1489 1491 1491 1493 1494 1495 1496 1498 1499 1500 1502 1503 1504 1506 1506 1507 1507 1508 1509 1510 1511 1512 1513 1514 1514 1515 1515 1516 1517 1517 1517 1518 1518 1519
1502 1499 1496 1499 1504 1504 1502 1482 1479 1480 1483 1483 1483 1483 1484 1484 1485 1486 1487 1489 1490 1491 1492 1494 1495 1497 1498 1500 1501 1502 1502 1503 1504 1504 1506 1507 1508 1509 1509 1510 1510 1511 1512 1512 1513 1514 1515 1515 1516
1497 1501 1502 1504 1501 1493 1499 1478 1470 1476 1477 1477 1478 1478 1479 1480 1481 1482 1482 1484 1485 1487 1488 1490 1491 1492 1493 1494 1495 1496 1497 1497 1498 1499 1500 1501 1502 1503 1505 1505 1506 1506 1507 1508 1509 1510 1510 1511 1512
1500 1504 1503 1503 1500 1498 1496 1492 1465 1474 1472 1471 1473 1474 1475 1475 1476 1477 1478 1480 1481 1483 1484 1485 1486 1487 1488 1489 1490 1491 1492 1493 1494 1494 1495 1496 1497 1498 1499 1500 1501 1502 1502 1503 1504 1505 1506 1507 1507
1504 1504 1504 1502 1498 1490 1486 1486 1460 1463 1465 1467 1470 1471 1471 1472 1473 1474 1475 1476 1477 1478 1479 1480 1481 1482 1483 1484 1485 1486 1486 1487 1488 1489 1490 1491 1492 1492 1494 1495 1496 1497 1497 1498 1499 1500 1501 1502 1503
1503 1498 1489 1484 1482 1472 1489 1485 1465 1462 1465 1467 1468 1469 1469 1469 1470 1470 1471 1472 1472 1473 1474 1475 1475 1476 1477 1478 1479 1480 1481 1482 1482 1483 1484 1485 1486 1487 1488 1489 1490 1491 1492 1493 1494 1495 1496 1497 1498
1499 1494 1485 1478 1468 1463 1486 1475 1460 1463 1465 1466 1467 1467 1466 1467 1467 1467 1467 1468 1468 1469 1469 1470 1470 1471 1472 1472 1473 1474 1475 1476 1476 1477 1478 1479 1480 1481 1482 1483 1485 1486 1487 1487 1489 1490 1490 1492 1493
1496 1494 1492 1488 1486 1482 1463 1465 1462 1461 1462 1464 1465 1465 1464 1464 1464 1464 1465 1465 1465 1465 1465 1465 1466 1466 1466 1467 1467 1468 1469 1469 1470 1472 1472 1474 1475 1476 1477 1477 1479 1480 1481 1482 1483 1484 1485 1486 1487
1499 1495 1495 1488 1479 1466 1454 1457 1451 1456 1458 1461 1462 1462 1462 1462 1462 1462 1462 1461 1461 1461 1460 1461 1461 1461 1461 1461 1461 1462 1463 1464 1464 1465 1466 1467 1468 1470 1470 1471 1472 1473 1475 1476 1477 1477 1479 1480 1481
1498 1497 1492 1485 1479 1468 1455 1446 1450 1453 1456 1458 1459 1460 1460 1460 1459 1459 1458 1458 1457 1456 1456 1455 1455 1455 1455 1455 1455 1456 1457 1457 1458 1459 1460 1461 1462 1463 1463 1464 1466 1467 1468 1469 1470 1471 1472 1473 1475
1493 1489 1488 1483 1478 1477 1464 1452 1455 1456 1457 1459 1459 1459 1458 1457 1456 1455 1455 1453 1452 1451 1451 1450 1450 1449 1449 1449 1450 1450 1450 1451 1452 1452 1453 1454 1455 1456 1457 1458 1459 1461 1461 1462 1463 1464 1465 1467 1468